TimeMST,TemperatureF,Dew PointF,Humidity,Sea Level PressureIn,VisibilityMPH,Wind Direction,Wind SpeedMPH,Gust SpeedMPH,PrecipitationIn,Events,Conditions,WindDirDegrees,DateUTC
12:53 AM,3.9,1.0,88,30.30,10.0,Calm,Calm,-,N/A,,Clear,0,2013-01-06 07:53:00
1:53 AM,3.9,-0.0,84,30.28,10.0,Calm,Calm,-,N/A,,Clear,0,2013-01-06 08:53:00
2:53 AM,8.1,3.9,83,30.26,10.0,SSE,3.5,-,N/A,,Partly Cloudy,150,2013-01-06 09:53:00
3:53 AM,10.9,6.1,81,30.23,10.0,Calm,Calm,-,N/A,,Mostly Cloudy,0,2013-01-06 10:53:00
4:53 AM,12.9,8.1,81,30.19,10.0,North,5.8,-,N/A,,Mostly Cloudy,360,2013-01-06 11:53:00
5:53 AM,14.0,9.0,80,30.23,10.0,South,5.8,-,N/A,,Clear,180,2013-01-06 12:53:00
6:53 AM,15.1,10.0,80,30.22,10.0,ENE,3.5,-,N/A,,Scattered Clouds,60,2013-01-06 13:53:00
7:53 AM,12.0,8.1,84,30.24,10.0,SE,3.5,-,N/A,,Partly Cloudy,140,2013-01-06 14:53:00
8:53 AM,14.0,9.0,80,30.22,10.0,SSE,5.8,-,N/A,,Mostly Cloudy,160,2013-01-06 15:53:00
9:53 AM,18.0,12.0,78,30.22,10.0,Calm,Calm,-,N/A,,Overcast,0,2013-01-06 16:53:00
10:53 AM,21.0,14.0,74,30.20,10.0,Calm,Calm,-,N/A,,Overcast,0,2013-01-06 17:53:00
11:53 AM,24.1,16.0,71,30.17,10.0,Calm,Calm,-,N/A,,Overcast,0,2013-01-06 18:53:00
12:53 PM,28.0,16.0,61,30.12,10.0,Calm,Calm,-,N/A,,Overcast,0,2013-01-06 19:53:00
1:53 PM,30.9,19.0,61,30.09,10.0,North,5.8,-,N/A,,Overcast,360,2013-01-06 20:53:00
2:53 PM,34.0,19.9,56,30.07,10.0,Calm,Calm,-,N/A,,Overcast,0,2013-01-06 21:53:00
3:53 PM,34.0,19.0,54,30.07,10.0,NNW,5.8,-,N/A,,Overcast,330,2013-01-06 22:53:00
4:53 PM,30.9,19.0,61,30.08,10.0,WNW,5.8,-,N/A,,Partly Cloudy,300,2013-01-06 23:53:00
5:53 PM,28.9,18.0,64,30.10,10.0,Variable,4.6,-,N/A,,Scattered Clouds,0,2013-01-07 00:53:00
6:53 PM,26.1,17.1,69,30.11,10.0,NNE,4.6,-,N/A,,Clear,30,2013-01-07 01:53:00
7:53 PM,24.1,16.0,71,30.14,10.0,Calm,Calm,-,N/A,,Partly Cloudy,0,2013-01-07 02:53:00
8:53 PM,19.9,15.1,81,30.16,10.0,NNW,3.5,-,N/A,,Mostly Cloudy,330,2013-01-07 03:53:00
9:53 PM,21.9,16.0,78,30.13,10.0,Calm,Calm,-,N/A,,Overcast,0,2013-01-07 04:53:00
10:53 PM,28.9,16.0,58,30.10,10.0,WSW,8.1,-,N/A,,Overcast,250,2013-01-07 05:53:00
11:53 PM,26.1,14.0,60,30.10,10.0,Calm,Calm,-,N/A,,Mostly Cloudy,0,2013-01-07 06:53:00